User: anonymous   Login
Location: Heilwood
(40.6210°N, 78.9150°W)
Time: 16:22:13
(UTC-05:00)
Language:

Iridium 4 Rocket - Orbit

View from above orbital plane
View from above orbital plane
View from above satellite
View from above satellite

Ground track
Ground track

The orbit data is extracted from the following two-line orbital elements,

1 24797U 97020F   17324.48367094  .00000135  00000-0  22994-4 0  9994
2 24797  86.8926 296.1099 0226232 155.7123 323.1700 14.44018022 80502
Epoch (UTC): 20 November 2017 11:36:29
Eccentricity: 0.0226232
inclination: 86.8926°
perigee height: 584 km
apogee height: 906 km
right ascension of ascending node: 296.1099°
argument of perigee: 155.7123°
revolutions per day: 14.44018022
mean anomaly at epoch: 323.1700°
orbit number at epoch: 8050

The dashed part of the orbit path shows where the satellite is in the earth's shadow,  

DLR